Location: Asheville, NC
(35.6000°N, 82.5500°W)
Time: 23:03:38
(UTC-04:00)

Vanguard 2 - Pass Details

Date: 18 February 2018
Orbit: 552 x 2940 km, 32.9° (Epoch: 20 May)

Event Time Altitude Azimuth Distance (km) Brightness Sun altitude
Rises 21:33:23 0° 271° (W) 4,104 12.1 -40.6°
Reaches altitude 10° 21:36:47 10° 269° (W) 2,785 11.0 -41.3°
Enters shadow 21:39:05 21° 264° (W) 1,902 9.9 -41.7°
Maximum altitude 21:42:55 61° 190° (S) 825 - -42.5°
Drops below altitude 10° 21:47:09 10° 110° (ESE) 1,939 - -43.3°
Sets 21:49:10 0° 106° (ESE) 2,756 - -43.7°
